When you browse on this site, cookies collect data to enhance your experience and personalize the content and advertising you see.
Visit our Privacy Policy to learn more. By continuing to use the site, you agree to this use of cookies and data.
  • în România
  • Lista ţărilor
  • Pe 7 zile
  • Temperatura apei
  • Hartă satelitară
  • Meteo pe hartă
  • Widget-uri
  • user-avatar
    Intrare

    Meteo pe oră la San Fernando de Apure

    Astăzi, 21 Martie, Joi

    Timp Temperatura Precipitaţii Vânt Presiune Umiditate
    00:00 +34°C° 0 mm 3 m/s 752 mmHg 37%
    01:00 +34°C° 0 mm 3 m/s 752 mmHg 41%
    02:00 +33°C° 0 mm 4 m/s 752 mmHg 46%
    03:00 +33°C° 0 mm 4 m/s 752 mmHg 49%
    04:00 +32°C° 0 mm 4 m/s 752 mmHg 52%
    05:00 +30°C° 0 mm 3 m/s 752 mmHg 55%
    06:00 +32°C° 0 mm 4 m/s 753 mmHg 55%
    07:00 +32°C° 0 mm 4 m/s 753 mmHg 54%
    08:00 +32°C° 0 mm 5 m/s 754 mmHg 54%
    09:00 +34°C° 0 mm 5 m/s 754 mmHg 49%
    10:00 +36°C° 0 mm 4 m/s 754 mmHg 43%
    11:00 +37°C° 0 mm 4 m/s 754 mmHg 38%
    12:00 +40°C° 0 mm 4 m/s 753 mmHg 35%
    13:00 +40°C° 0 mm 3 m/s 752 mmHg 31%
    14:00 +42°C° 0 mm 3 m/s 751 mmHg 28%
    15:00 +42°C° 0 mm 3 m/s 750 mmHg 27%
    16:00 +42°C° 0 mm 3 m/s 749 mmHg 27%
    17:00 +42°C° 0 mm 3 m/s 749 mmHg 26%
    18:00 +40°C° 0 mm 2 m/s 749 mmHg 28%
    19:00 +38°C° 0 mm 2 m/s 750 mmHg 30%
    20:00 +35°C° 0 mm 1 m/s 750 mmHg 32%
    21:00 +35°C° 0 mm 1 m/s 751 mmHg 32%
    22:00 +34°C° 0 mm 1 m/s 751 mmHg 33%
    23:00 +34°C° 0 mm 1 m/s 752 mmHg 33%

    Mâine, 22 Martie, Vineri

    Timp Temperatura Precipitaţii Vânt Presiune Umiditate
    00:00 +34°C° 0 mm 2 m/s 752 mmHg 39%
    01:00 +34°C° 0 mm 3 m/s 752 mmHg 44%
    02:00 +33°C° 0 mm 3 m/s 752 mmHg 49%
    03:00 +31°C° 0 mm 3 m/s 752 mmHg 51%
    04:00 +31°C° 0 mm 3 m/s 752 mmHg 53%
    05:00 +30°C° 0 mm 3 m/s 752 mmHg 56%
    06:00 +30°C° 0 mm 3 m/s 753 mmHg 56%
    07:00 +32°C° 0 mm 4 m/s 753 mmHg 56%
    08:00 +32°C° 0 mm 4 m/s 754 mmHg 56%
    09:00 +34°C° 0 mm 4 m/s 754 mmHg 50%
    10:00 +35°C° 0 mm 4 m/s 754 mmHg 43%
    11:00 +37°C° 0 mm 4 m/s 754 mmHg 37%
    12:00 +40°C° 0 mm 4 m/s 753 mmHg 34%
    13:00 +41°C° 0 mm 4 m/s 752 mmHg 31%
    14:00 +42°C° 0 mm 4 m/s 751 mmHg 28%
    15:00 +42°C° 0 mm 3 m/s 750 mmHg 28%
    16:00 +42°C° 0 mm 3 m/s 749 mmHg 27%
    17:00 +42°C° 0 mm 3 m/s 749 mmHg 27%
    18:00 +40°C° 0 mm 2 m/s 749 mmHg 29%
    19:00 +38°C° 0 mm 2 m/s 750 mmHg 31%
    20:00 +36°C° 0 mm 1 m/s 750 mmHg 33%
    21:00 +35°C° 0 mm 1 m/s 751 mmHg 33%
    22:00 +36°C° 0 mm 2 m/s 752 mmHg 34%
    23:00 +35°C° 0 mm 2 m/s 753 mmHg 34%

    Poimâine, 23 Martie, Sâmbătă

    Timp Temperatura Precipitaţii Vânt Presiune Umiditate
    00:00 +34°C° 0 mm 2 m/s 752 mmHg 34%
    01:00 +34°C° 0 mm 3 m/s 752 mmHg 35%
    02:00 +33°C° 0 mm 3 m/s 752 mmHg 35%
    03:00 +31°C° 0 mm 3 m/s 752 mmHg 41%
    04:00 +31°C° 0 mm 3 m/s 752 mmHg 46%
    05:00 +30°C° 0 mm 3 m/s 752 mmHg 52%
    06:00 +30°C° 0 mm 4 m/s 753 mmHg 51%
    07:00 +30°C° 0 mm 4 m/s 754 mmHg 49%
    08:00 +32°C° 0 mm 5 m/s 755 mmHg 48%
    09:00 +34°C° 0 mm 5 m/s 755 mmHg 42%
    10:00 +35°C° 0 mm 5 m/s 755 mmHg 37%
    11:00 +37°C° 0 mm 5 m/s 755 mmHg 31%
    12:00 +40°C° 0 mm 5 m/s 754 mmHg 29%
    13:00 +41°C° 0 mm 4 m/s 753 mmHg 26%
    14:00 +42°C° 0 mm 4 m/s 751 mmHg 24%
    15:00 +42°C° 0 mm 4 m/s 751 mmHg 23%
    16:00 +42°C° 0 mm 3 m/s 750 mmHg 22%
    17:00 +42°C° 0 mm 3 m/s 750 mmHg 21%
    18:00 +39°C° 0 mm 2 m/s 750 mmHg 24%
    19:00 +38°C° 0 mm 2 m/s 751 mmHg 26%
    20:00 +35°C° 0 mm 1 m/s 751 mmHg 28%
    21:00 +35°C° 0 mm 1 m/s 752 mmHg 28%
    22:00 +34°C° 0 mm 1 m/s 752 mmHg 29%
    23:00 +33°C° 0 mm 1 m/s 753 mmHg 30%

    24 Martie, Duminică

    Timp Temperatura Precipitaţii Vânt Presiune Umiditate
    00:00 +33°C° 0 mm 1 m/s 753 mmHg 32%
    01:00 +32°C° 0 mm 2 m/s 752 mmHg 34%
    02:00 +32°C° 0 mm 2 m/s 752 mmHg 36%
    03:00 +31°C° 0 mm 2 m/s 752 mmHg 41%
    04:00 +30°C° 0 mm 2 m/s 753 mmHg 46%
    05:00 +29°C° 0 mm 1 m/s 753 mmHg 51%
    06:00 +30°C° 0 mm 2 m/s 754 mmHg 52%
    07:00 +30°C° 0 mm 3 m/s 754 mmHg 52%
    08:00 +32°C° 0 mm 4 m/s 755 mmHg 52%
    09:00 +34°C° 0 mm 4 m/s 755 mmHg 46%
    10:00 +35°C° 0 mm 4 m/s 755 mmHg 40%
    11:00 +37°C° 0 mm 4 m/s 755 mmHg 34%
    12:00 +38°C° 0 mm 4 m/s 754 mmHg 32%
    13:00 +40°C° 0 mm 3 m/s 753 mmHg 29%
    14:00 +42°C° 0 mm 3 m/s 751 mmHg 27%
    15:00 +42°C° 0 mm 3 m/s 751 mmHg 26%
    16:00 +42°C° 0 mm 3 m/s 750 mmHg 26%
    17:00 +42°C° 0 mm 3 m/s 749 mmHg 25%
    18:00 +39°C° 0 mm 2 m/s 750 mmHg 27%
    19:00 +37°C° 0 mm 1 m/s 750 mmHg 30%
    20:00 +35°C° 0 mm 1 m/s 751 mmHg 32%
    21:00 +34°C° 0 mm 1 m/s 751 mmHg 33%
    22:00 +34°C° 0 mm 1 m/s 752 mmHg 35%
    23:00 +33°C° 0 mm 1 m/s 752 mmHg 36%

    25 Martie, Luni

    Timp Temperatura Precipitaţii Vânt Presiune Umiditate
    00:00 +33°C° 0 mm 1 m/s 752 mmHg 37%
    01:00 +34°C° 0 mm 2 m/s 752 mmHg 39%
    02:00 +33°C° 0 mm 3 m/s 751 mmHg 40%
    03:00 +33°C° 0 mm 3 m/s 751 mmHg 44%
    04:00 +31°C° 0 mm 2 m/s 752 mmHg 47%
    05:00 +30°C° 0 mm 2 m/s 752 mmHg 51%
    06:00 +30°C° 0 mm 3 m/s 752 mmHg 49%
    07:00 +31°C° 0 mm 3 m/s 753 mmHg 47%
    08:00 +32°C° 0 mm 4 m/s 754 mmHg 46%
    09:00 +34°C° 0 mm 4 m/s 754 mmHg 43%
    10:00 +36°C° 0 mm 4 m/s 754 mmHg 39%
    11:00 +37°C° 0 mm 4 m/s 754 mmHg 36%
    12:00 +40°C° 0 mm 4 m/s 753 mmHg 33%
    13:00 +40°C° 0 mm 3 m/s 751 mmHg 30%
    14:00 +42°C° 0 mm 3 m/s 750 mmHg 27%
    15:00 +42°C° 0 mm 3 m/s 750 mmHg 27%
    16:00 +42°C° 0 mm 3 m/s 749 mmHg 26%
    17:00 +42°C° 0 mm 3 m/s 749 mmHg 26%
    18:00 +40°C° 0 mm 2 m/s 749 mmHg 28%
    19:00 +38°C° 0 mm 2 m/s 750 mmHg 30%
    20:00 +35°C° 0 mm 1 m/s 750 mmHg 32%
    21:00 +35°C° 0 mm 1 m/s 751 mmHg 33%
    22:00 +34°C° 0 mm 1 m/s 751 mmHg 34%
    23:00 +34°C° 0 mm 1 m/s 751 mmHg 34%

    26 Martie, Marţi

    Timp Temperatura Precipitaţii Vânt Presiune Umiditate
    00:00 +34°C° 0 mm 2 m/s 751 mmHg 35%
    01:00 +34°C° 0 mm 2 m/s 751 mmHg 35%
    02:00 +34°C° 0 mm 2 m/s 751 mmHg 36%
    03:00 +32°C° 0 mm 2 m/s 751 mmHg 39%
    04:00 +33°C° 0 mm 3 m/s 751 mmHg 41%
    05:00 +31°C° 0 mm 3 m/s 751 mmHg 44%
    06:00 +31°C° 0 mm 3 m/s 752 mmHg 46%
    07:00 +32°C° 0 mm 4 m/s 753 mmHg 48%
    08:00 +32°C° 0 mm 4 m/s 754 mmHg 50%
    09:00 +34°C° 0 mm 4 m/s 754 mmHg 47%
    10:00 +35°C° 0 mm 4 m/s 754 mmHg 43%
    11:00 +37°C° 0 mm 4 m/s 754 mmHg 39%
    12:00 +38°C° 0 mm 4 m/s 753 mmHg 35%
    13:00 +40°C° 0 mm 3 m/s 751 mmHg 31%
    14:00 +42°C° 0 mm 3 m/s 750 mmHg 27%
    15:00 +42°C° 0 mm 3 m/s 750 mmHg 26%
    16:00 +42°C° 0 mm 3 m/s 749 mmHg 25%
    17:00 +42°C° 0 mm 3 m/s 749 mmHg 25%
    18:00 +40°C° 0 mm 2 m/s 749 mmHg 27%
    19:00 +38°C° 0 mm 2 m/s 750 mmHg 29%
    20:00 +35°C° 0 mm 1 m/s 750 mmHg 31%
    21:00 +35°C° 0 mm 1 m/s 751 mmHg 31%
    22:00 +36°C° 0 mm 2 m/s 751 mmHg 32%
    23:00 +35°C° 0 mm 2 m/s 752 mmHg 32%
    Arată mai mult